Location: Unspecified
(0.0000°N, 0.0000°E)
Time: 17:09:02
(UTC+00:00)

Vanguard 3 - Pass Details

Date: 11 February 2023
Orbit: 509 x 3249 km, 33.3° (Epoch: 20 March)

Event Time Altitude Azimuth Distance (km) Brightness Sun altitude
Rises 11:20:33 0° 221° (SW) 3,494 10.4 70.7°
Reaches altitude 10° 11:23:49 10° 209° (SSW) 2,219 9.6 71.2°
Maximum altitude 11:27:56 27° 150° (SSE) 1,116 8.7 71.9°
Drops below altitude 10° 11:31:12 10° 89° (E) 1,741 9.2 72.4°
Sets 11:33:27 0° 76° (ENE) 2,592 9.8 72.7°
